Time,TemperatureF,DewpointF,PressureIn,WindDirection,WindDirectionDegrees,WindSpeedMPH,WindSpeedGustMPH,Humidity,HourlyPrecipIn,Conditions,Clouds,dailyrainin,SoftwareType,DateUTC
2013-11-18 00:03:00,43.0,-99.9,-100.00,North,-999,-999.0,-999.0,-999,0.03,,,0.09,,2013-11-18 05:03:00,
2013-11-18 00:12:00,43.0,-99.9,-100.00,North,-999,-999.0,-999.0,-999,0.03,,,0.09,,2013-11-18 05:12:00,
2013-11-18 00:54:00,44.0,-99.9,-100.00,North,-999,-999.0,-999.0,-999,0.05,,,0.14,,2013-11-18 05:54:00,
2013-11-18 01:02:00,44.0,-99.9,-100.00,North,-999,-999.0,-999.0,-999,0.05,,,0.14,,2013-11-18 06:02:00,
2013-11-18 01:12:00,44.0,-99.9,-100.00,North,-999,-999.0,-999.0,-999,0.05,,,0.14,,2013-11-18 06:12:00,
2013-11-18 01:52:00,43.0,-99.9,-100.00,North,-999,-999.0,-999.0,-999,0.04,,,0.18,,2013-11-18 06:52:00,
2013-11-18 02:01:00,43.0,-99.9,-100.00,North,-999,-999.0,-999.0,-999,0.04,,,0.18,,2013-11-18 07:01:00,
2013-11-18 02:12:00,43.0,-99.9,-100.00,North,-999,-999.0,-999.0,-999,0.04,,,0.18,,2013-11-18 07:12:00,
2013-11-18 02:52:00,44.0,-99.9,-100.00,North,-999,-999.0,-999.0,-999,0.02,,,0.20,,2013-11-18 07:52:00,
2013-11-18 03:02:00,44.0,-99.9,-100.00,North,-999,-999.0,-999.0,-999,0.02,,,0.20,,2013-11-18 08:02:00,
2013-11-18 03:12:00,44.0,-99.9,-100.00,North,-999,-999.0,-999.0,-999,0.02,,,0.20,,2013-11-18 08:12:00,
2013-11-18 03:52:00,45.0,-99.9,-100.00,North,-999,-999.0,-999.0,-999,0.00,,,0.20,,2013-11-18 08:52:00,
2013-11-18 04:02:00,45.0,-99.9,-100.00,North,-999,-999.0,-999.0,-999,0.00,,,0.20,,2013-11-18 09:02:00,
2013-11-18 04:13:00,45.0,-99.9,-100.00,North,-999,-999.0,-999.0,-999,0.00,,,0.20,,2013-11-18 09:13:00,
2013-11-18 04:53:00,48.0,-99.9,-100.00,North,-999,-999.0,-999.0,-999,0.00,,,0.20,,2013-11-18 09:53:00,
2013-11-18 05:03:00,48.0,-99.9,-100.00,North,-999,-999.0,-999.0,-999,0.00,,,0.20,,2013-11-18 10:03:00,
2013-11-18 05:13:00,48.0,-99.9,-100.00,North,-999,-999.0,-999.0,-999,0.00,,,0.20,,2013-11-18 10:13:00,
2013-11-18 05:53:00,48.0,-99.9,-100.00,North,-999,-999.0,-999.0,-999,0.03,,,0.23,,2013-11-18 10:53:00,
2013-11-18 06:02:00,48.0,-99.9,-100.00,North,-999,-999.0,-999.0,-999,0.03,,,0.23,,2013-11-18 11:02:00,
2013-11-18 06:12:00,48.0,-99.9,-100.00,North,-999,-999.0,-999.0,-999,0.03,,,0.23,,2013-11-18 11:12:00,
2013-11-18 06:53:00,53.0,-99.9,-100.00,North,-999,-999.0,-999.0,-999,0.10,,,0.33,,2013-11-18 11:53:00,
2013-11-18 07:02:00,53.0,-99.9,-100.00,North,-999,-999.0,-999.0,-999,0.10,,,0.33,,2013-11-18 12:02:00,
2013-11-18 07:12:00,53.0,-99.9,-100.00,North,-999,-999.0,-999.0,-999,0.10,,,0.33,,2013-11-18 12:12:00,
2013-11-18 07:52:00,53.0,-99.9,-100.00,North,-999,-999.0,-999.0,-999,0.17,,,0.50,,2013-11-18 12:52:00,
2013-11-18 08:02:00,53.0,-99.9,-100.00,North,-999,-999.0,-999.0,-999,0.17,,,0.50,,2013-11-18 13:02:00,
2013-11-18 08:11:00,53.0,-99.9,-100.00,North,-999,-999.0,-999.0,-999,0.17,,,0.50,,2013-11-18 13:11:00,
2013-11-18 08:52:00,52.0,-99.9,-100.00,North,-999,-999.0,-999.0,-999,0.05,,,0.55,,2013-11-18 13:52:00,
2013-11-18 09:02:00,52.0,-99.9,-100.00,North,-999,-999.0,-999.0,-999,0.05,,,0.55,,2013-11-18 14:02:00,
2013-11-18 09:11:00,52.0,-99.9,-100.00,North,-999,-999.0,-999.0,-999,0.05,,,0.55,,2013-11-18 14:11:00,
2013-11-18 09:53:00,49.0,-99.9,-100.00,North,-999,-999.0,-999.0,-999,0.03,,,0.58,,2013-11-18 14:53:00,
2013-11-18 10:02:00,49.0,-99.9,-100.00,North,-999,-999.0,-999.0,-999,0.03,,,0.58,,2013-11-18 15:02:00,
2013-11-18 10:11:00,49.0,-99.9,-100.00,North,-999,-999.0,-999.0,-999,0.03,,,0.58,,2013-11-18 15:11:00,
2013-11-18 10:54:00,51.0,-99.9,-100.00,North,-999,-999.0,-999.0,-999,0.01,,,0.59,,2013-11-18 15:54:00,
2013-11-18 11:04:00,51.0,-99.9,-100.00,North,-999,-999.0,-999.0,-999,0.01,,,0.59,,2013-11-18 16:04:00,
2013-11-18 11:13:00,51.0,-99.9,-100.00,North,-999,-999.0,-999.0,-999,0.01,,,0.59,,2013-11-18 16:13:00,
2013-11-18 11:53:00,52.0,-99.9,-100.00,North,-999,-999.0,-999.0,-999,0.00,,,0.59,,2013-11-18 16:53:00,
2013-11-18 12:02:00,52.0,-99.9,-100.00,North,-999,-999.0,-999.0,-999,0.00,,,0.59,,2013-11-18 17:02:00,
2013-11-18 12:12:00,52.0,-99.9,-100.00,North,-999,-999.0,-999.0,-999,0.00,,,0.59,,2013-11-18 17:12:00,
2013-11-18 12:52:00,51.0,-99.9,-100.00,North,-999,-999.0,-999.0,-999,0.00,,,0.59,,2013-11-18 17:52:00,
2013-11-18 13:02:00,51.0,-99.9,-100.00,North,-999,-999.0,-999.0,-999,0.00,,,0.59,,2013-11-18 18:02:00,
2013-11-18 13:12:00,51.0,-99.9,-100.00,North,-999,-999.0,-999.0,-999,0.00,,,0.59,,2013-11-18 18:12:00,
2013-11-18 13:52:00,53.0,-99.9,-100.00,North,-999,-999.0,-999.0,-999,0.00,,,0.59,,2013-11-18 18:52:00,
2013-11-18 14:02:00,53.0,-99.9,-100.00,North,-999,-999.0,-999.0,-999,0.00,,,0.59,,2013-11-18 19:02:00,
2013-11-18 14:11:00,53.0,-99.9,-100.00,North,-999,-999.0,-999.0,-999,0.00,,,0.59,,2013-11-18 19:11:00,
2013-11-18 15:02:00,53.0,-99.9,-100.00,North,-999,-999.0,-999.0,-999,0.00,,,0.59,,2013-11-18 20:02:00,
2013-11-18 15:11:00,53.0,-99.9,-100.00,North,-999,-999.0,-999.0,-999,0.00,,,0.59,,2013-11-18 20:11:00,
2013-11-18 15:52:00,51.0,-99.9,-100.00,North,-999,-999.0,-999.0,-999,0.00,,,0.59,,2013-11-18 20:52:00,
2013-11-18 16:02:00,51.0,-99.9,-100.00,North,-999,-999.0,-999.0,-999,0.00,,,0.59,,2013-11-18 21:02:00,
2013-11-18 16:12:00,51.0,-99.9,-100.00,North,-999,-999.0,-999.0,-999,0.00,,,0.59,,2013-11-18 21:12:00,
2013-11-18 16:54:00,50.0,-99.9,-100.00,North,-999,-999.0,-999.0,-999,0.00,,,0.59,,2013-11-18 21:54:00,
2013-11-18 17:03:00,50.0,-99.9,-100.00,North,-999,-999.0,-999.0,-999,0.00,,,0.59,,2013-11-18 22:03:00,
2013-11-18 17:13:00,50.0,-99.9,-100.00,North,-999,-999.0,-999.0,-999,0.00,,,0.59,,2013-11-18 22:13:00,
2013-11-18 17:53:00,49.0,-99.9,-100.00,North,-999,-999.0,-999.0,-999,0.00,,,-99.99,,2013-11-18 22:53:00,
2013-11-18 18:02:00,49.0,-99.9,-100.00,North,-999,-999.0,-999.0,-999,0.00,,,-99.99,,2013-11-18 23:02:00,
2013-11-18 18:12:00,49.0,-99.9,-100.00,North,-999,-999.0,-999.0,-999,0.00,,,-99.99,,2013-11-18 23:12:00,
2013-11-18 18:53:00,46.0,-99.9,-100.00,North,-999,-999.0,-999.0,-999,0.00,,,0.59,,2013-11-18 23:53:00,
2013-11-18 19:02:00,46.0,-99.9,-100.00,North,-999,-999.0,-999.0,-999,0.00,,,0.59,,2013-11-19 00:02:00,
2013-11-18 19:11:00,46.0,-99.9,-100.00,North,-999,-999.0,-999.0,-999,0.00,,,0.59,,2013-11-19 00:11:00,
2013-11-18 19:52:00,42.0,-99.9,-100.00,North,-999,-999.0,-999.0,-999,0.00,,,0.59,,2013-11-19 00:52:00,
2013-11-18 20:02:00,42.0,-99.9,-100.00,North,-999,-999.0,-999.0,-999,0.00,,,0.59,,2013-11-19 01:02:00,
2013-11-18 20:11:00,42.0,-99.9,-100.00,North,-999,-999.0,-999.0,-999,0.00,,,0.59,,2013-11-19 01:11:00,
2013-11-18 20:52:00,46.0,-99.9,-100.00,North,-999,-999.0,-999.0,-999,0.00,,,0.59,,2013-11-19 01:52:00,
2013-11-18 21:01:00,46.0,-99.9,-100.00,North,-999,-999.0,-999.0,-999,0.00,,,0.59,,2013-11-19 02:01:00,
2013-11-18 21:12:00,46.0,-99.9,-100.00,North,-999,-999.0,-999.0,-999,0.00,,,0.59,,2013-11-19 02:12:00,
2013-11-18 21:52:00,43.0,-99.9,-100.00,North,-999,-999.0,-999.0,-999,0.00,,,0.56,,2013-11-19 02:52:00,
2013-11-18 22:02:00,43.0,-99.9,-100.00,North,-999,-999.0,-999.0,-999,0.00,,,0.56,,2013-11-19 03:02:00,
2013-11-18 22:12:00,43.0,-99.9,-100.00,North,-999,-999.0,-999.0,-999,0.00,,,0.56,,2013-11-19 03:12:00,
2013-11-18 22:54:00,43.0,-99.9,-100.00,North,-999,-999.0,-999.0,-999,0.00,,,0.53,,2013-11-19 03:54:00,
2013-11-18 23:13:00,43.0,-99.9,-100.00,North,-999,-999.0,-999.0,-999,0.00,,,0.53,,2013-11-19 04:13:00,
2013-11-18 23:53:00,42.0,-99.9,-100.00,North,-999,-999.0,-999.0,-999,0.00,,,0.50,,2013-11-19 04:53:00,